#timestamp,LO_Frequency,Hit,StdDev 
1590129535.5,286046963.6,P
1590129555.3,286046965.5,P
1590129575.1,286046965.6,P
1590129595.9,286046965.6,Y
1590129615.7,286047000.5,P
1590129635.5,286047001.1,N
1590129655.4,286047000.8,N
1590129675.2,286046998.9,N
1590129695.1,286046997.8,N
1590129696.0,286046997.8,N
1590129715.8,286046995.5,N
1590129735.6,286046995.8,N
1590129755.5,286046993.7,N
1590129775.3,286046993.8,N
1590129795.1,286046992.2,N
1590129815.9,286046994.1,N
1590129835.7,286046993.8,N
1590129855.6,286046993.0,N
1590129875.4,286046991.5,N
1590129895.2,286046989.3,N
1590129915.1,286046987.8,N
1590129916.0,286046987.8,N
1590129935.8,286046986.0,N
1590129955.7,286046987.7,N
1590129975.5,286046989.9,N
1590129995.3,286046989.2,N
1590130015.2,286046988.0,N
1590130035.0,286046988.3,N
1590130035.9,286046988.3,N
1590130055.7,286046985.8,N
1590130075.6,286046984.4,N
1590130095.4,286046986.2,N
1590130115.3,286046986.5,N
1590130135.1,286046984.0,N
1590130136.0,286046984.0,Y
1590130155.8,286046991.7,P
1590130175.7,286046994.6,P
1590130195.5,286046993.6,P
1590130215.4,286046992.2,Y
1590130235.2,286047000.4,P
1590130255.0,286047001.1,N
1590130255.9,286047001.1,N
1590130275.8,286046999.6,N
1590130295.6,286046994.9,N
1590130315.4,286046996.2,N
1590130335.3,286046996.0,N
1590130355.1,286046996.4,N
1590130375.9,286046994.0,N
1590130395.7,286046994.8,N
1590130415.5,286046992.7,N
1590130435.4,286046990.9,Y
1590130455.2,286046992.0,P
1590130475.0,286046990.5,P
1590130475.9,286046990.5,P
1590130495.8,286046990.3,Y
1590130515.6,286046999.4,P
1590130535.5,286046997.1,N
1590130555.3,286046997.6,N
1590130575.1,286046995.1,N
1590130595.9,286046995.8,N
1590130615.7,286046993.7,N
1590130635.6,286046994.0,N
1590130655.4,286046994.4,N
1590130675.2,286046991.8,Y
1590130695.1,286046997.8,P
1590130696.0,286046997.8,N
1590130715.8,286046997.4,N
1590130735.6,286046998.0,N
1590130755.5,286046995.3,Y
1590130775.3,286046998.6,P
1590130795.2,286047000.5,N
